BEL2DF EPWA-EBBR

Flight info

Callsign BEL2DF
Flight time 1h 46m
Altitude 38000
Route LOLSI DCT DIBLO DCT INDIG DCT GOVEN DCT MAG DCT TOLGI DCT ABAMI Z717 NEREL/N0352F240 T855 AGENI/N0324F180 T855 BATTY
Aircraft A20N/M-SDE2E3FGHIRWXY/LB1

Departure

Time 2026-05-06 18:08
Airport Warsaw Chopin Airport (EPWA)

Arrival

Time 2026-05-06 19:55
Airport Brussels Airport (EBBR)
Time Latitude Longitude Altitude Speed Heading
2026-05-06 17:43 52.17094 20.97069 352 ft 0 kts 77°
2026-05-06 17:57 52.17094 20.97067 352 ft 1 kts 76°
2026-05-06 17:57 52.17091 20.97042 352 ft 2 kts 77°
2026-05-06 17:57 52.17088 20.97019 352 ft 2 kts 77°
2026-05-06 17:58 52.17084 20.96995 352 ft 2 kts 77°
2026-05-06 17:58 52.17081 20.96971 352 ft 2 kts 77°
2026-05-06 17:58 52.17078 20.96947 352 ft 2 kts 76°
2026-05-06 17:58 52.17078 20.96923 352 ft 2 kts 118°
2026-05-06 17:59 52.17086 20.96907 352 ft 0 kts 147°
2026-05-06 17:59 52.17092 20.96902 352 ft 1 kts 153°
2026-05-06 17:59 52.17094 20.96901 352 ft 0 kts 152°
2026-05-06 18:01 52.17092 20.96902 352 ft 0 kts 152°
2026-05-06 18:01 52.17088 20.96906 352 ft 1 kts 152°
2026-05-06 18:02 52.17075 20.96917 352 ft 2 kts 152°
2026-05-06 18:02 52.17056 20.96934 352 ft 3 kts 152°
2026-05-06 18:02 52.17037 20.96950 352 ft 3 kts 152°
2026-05-06 18:02 52.17026 20.96959 352 ft 0 kts 152°
2026-05-06 18:03 52.17025 20.96960 352 ft 0 kts 152°
2026-05-06 18:03 52.17016 20.96968 352 ft 3 kts 152°
2026-05-06 18:03 52.16986 20.96994 352 ft 6 kts 152°
2026-05-06 18:03 52.16934 20.97039 351 ft 10 kts 151°
2026-05-06 18:04 52.16861 20.97105 351 ft 13 kts 151°
2026-05-06 18:04 52.16768 20.97188 351 ft 16 kts 152°
2026-05-06 18:04 52.16660 20.97282 351 ft 17 kts 149°
2026-05-06 18:04 52.16574 20.97383 351 ft 14 kts 123°
2026-05-06 18:05 52.16531 20.97532 351 ft 15 kts 114°
2026-05-06 18:05 52.16484 20.97696 351 ft 16 kts 115°
2026-05-06 18:05 52.16432 20.97809 351 ft 11 kts 172°
2026-05-06 18:05 52.16396 20.97796 351 ft 0 kts 200°
2026-05-06 18:06 52.16395 20.97795 351 ft 0 kts 203°
2026-05-06 18:06 52.16391 20.97792 351 ft 1 kts 203°
2026-05-06 18:06 52.16380 20.97785 351 ft 2 kts 203°
2026-05-06 18:07 52.16357 20.97769 351 ft 5 kts 204°
2026-05-06 18:07 52.16312 20.97723 351 ft 8 kts 240°
2026-05-06 18:07 52.16322 20.97614 351 ft 14 kts 292°
2026-05-06 18:07 52.16455 20.97131 351 ft 82 kts 293°
2026-05-06 18:08 52.16785 20.95954 357 ft 142 kts 294°
2026-05-06 18:08 52.17239 20.94328 651 ft 164 kts 293°
2026-05-06 18:08 52.17717 20.92623 1259 ft 168 kts 293°
2026-05-06 18:08 52.18181 20.90906 1922 ft 169 kts 286°
2026-05-06 18:09 52.18345 20.89004 2467 ft 177 kts 266°
2026-05-06 18:09 52.18220 20.86920 2930 ft 193 kts 262°
2026-05-06 18:09 52.18065 20.84675 3388 ft 211 kts 265°
2026-05-06 18:09 52.18138 20.82193 3786 ft 234 kts 277°
2026-05-06 18:10 52.18473 20.79479 4290 ft 254 kts 280°
2026-05-06 18:10 52.18877 20.76627 4987 ft 264 kts 280°
2026-05-06 18:10 52.19299 20.73701 5865 ft 267 kts 279°
2026-05-06 18:10 52.19532 20.70749 6742 ft 265 kts 264°
2026-05-06 18:11 52.19230 20.67869 7615 ft 263 kts 250°
2026-05-06 18:11 52.18632 20.65086 8477 ft 264 kts 248°
2026-05-06 18:11 52.17995 20.62276 9306 ft 266 kts 248°
2026-05-06 18:11 52.17358 20.59458 10141 ft 269 kts 248°
2026-05-06 18:12 52.16701 20.56535 10673 ft 283 kts 248°
2026-05-06 18:12 52.16020 20.53477 11198 ft 297 kts 250°
2026-05-06 18:12 52.15531 20.50163 11893 ft 305 kts 260°
2026-05-06 18:12 52.15407 20.46752 12607 ft 311 kts 269°
2026-05-06 18:13 52.15521 20.43224 13370 ft 315 kts 271°
2026-05-06 18:13 52.15673 20.39673 14081 ft 317 kts 271°
2026-05-06 18:13 52.15831 20.36109 14829 ft 320 kts 271°
2026-05-06 18:13 52.15988 20.32454 15532 ft 323 kts 270°
2026-05-06 18:14 52.16139 20.28843 16238 ft 325 kts 270°
2026-05-06 18:14 52.16290 20.25133 16937 ft 328 kts 269°
2026-05-06 18:14 52.16438 20.21429 17584 ft 331 kts 269°
2026-05-06 18:14 52.16584 20.17729 18211 ft 334 kts 269°
2026-05-06 18:15 52.16730 20.13959 18839 ft 337 kts 269°
2026-05-06 18:15 52.16876 20.10136 19489 ft 339 kts 269°
2026-05-06 18:15 52.17020 20.06348 20127 ft 341 kts 269°
2026-05-06 18:15 52.17165 20.02501 20734 ft 343 kts 269°
2026-05-06 18:16 52.17312 19.98605 21323 ft 346 kts 269°
2026-05-06 18:16 52.17457 19.94708 21927 ft 347 kts 269°
2026-05-06 18:16 52.17578 19.90808 22498 ft 349 kts 267°
2026-05-06 18:16 52.17547 19.86868 23034 ft 350 kts 264°
2026-05-06 18:17 52.17339 19.82916 23577 ft 351 kts 260°
2026-05-06 18:17 52.17010 19.79032 24079 ft 354 kts 259°
2026-05-06 18:17 52.16659 19.75060 24569 ft 357 kts 259°
2026-05-06 18:17 52.16303 19.71068 25061 ft 359 kts 259°
2026-05-06 18:18 52.15939 19.67013 25534 ft 362 kts 259°
2026-05-06 18:18 52.15575 19.62966 25977 ft 365 kts 259°
2026-05-06 18:18 52.15207 19.58896 26411 ft 367 kts 258°
2026-05-06 18:18 52.14833 19.54781 26846 ft 370 kts 258°
2026-05-06 18:19 52.14457 19.50653 27273 ft 372 kts 258°
2026-05-06 18:19 52.14078 19.46502 27687 ft 374 kts 258°
2026-05-06 18:19 52.13695 19.42340 28090 ft 376 kts 258°
2026-05-06 18:19 52.13306 19.38138 28492 ft 378 kts 258°
2026-05-06 18:20 52.12913 19.33884 28856 ft 381 kts 257°
2026-05-06 18:20 52.12517 19.29655 29216 ft 383 kts 257°
2026-05-06 18:20 52.12109 19.25291 29587 ft 385 kts 257°
2026-05-06 18:20 52.11706 19.21023 29920 ft 388 kts 257°
2026-05-06 18:21 52.11292 19.16644 30260 ft 390 kts 257°
2026-05-06 18:21 52.10883 19.12319 30605 ft 392 kts 257°
2026-05-06 18:21 52.10464 19.07906 30917 ft 394 kts 257°
2026-05-06 18:21 52.10044 19.03524 31237 ft 396 kts 257°
2026-05-06 18:22 52.09621 18.99121 31589 ft 396 kts 257°
2026-05-06 18:22 52.09200 18.94749 31889 ft 397 kts 257°
2026-05-06 18:22 52.08770 18.90307 32249 ft 396 kts 256°
2026-05-06 18:22 52.08344 18.85900 32647 ft 394 kts 257°
2026-05-06 18:23 52.08099 18.83391 32895 ft 392 kts 257°
2026-05-06 18:23 52.07679 18.79067 33312 ft 390 kts 256°
2026-05-06 18:23 52.07250 18.74721 33642 ft 389 kts 257°
2026-05-06 18:23 52.06824 18.70395 33943 ft 388 kts 257°
2026-05-06 18:24 52.06400 18.66106 34259 ft 387 kts 257°
2026-05-06 18:24 52.05973 18.61827 34602 ft 384 kts 257°
2026-05-06 18:24 52.05548 18.57563 34882 ft 383 kts 257°
2026-05-06 18:24 52.05122 18.53312 35088 ft 382 kts 257°
2026-05-06 18:25 52.04696 18.49073 35261 ft 382 kts 257°
2026-05-06 18:25 52.04269 18.44819 35430 ft 383 kts 257°
2026-05-06 18:25 52.03835 18.40545 35571 ft 383 kts 258°
2026-05-06 18:25 52.03408 18.36332 35733 ft 383 kts 258°
2026-05-06 18:26 52.02968 18.32014 35887 ft 384 kts 257°
2026-05-06 18:26 52.02532 18.27751 36022 ft 384 kts 257°
2026-05-06 18:26 52.02106 18.23592 36165 ft 384 kts 257°
2026-05-06 18:26 52.01667 18.19319 36273 ft 384 kts 257°
2026-05-06 18:27 52.01220 18.15018 36374 ft 386 kts 257°
2026-05-06 18:27 52.00772 18.10707 36513 ft 386 kts 258°
2026-05-06 18:27 52.00353 18.06398 36647 ft 387 kts 259°
2026-05-06 18:27 52.00058 18.02044 36792 ft 389 kts 262°
2026-05-06 18:28 51.99904 17.97632 36942 ft 390 kts 265°
2026-05-06 18:28 51.99892 17.93265 37063 ft 392 kts 268°
2026-05-06 18:28 52.00007 17.88810 37182 ft 394 kts 269°
2026-05-06 18:28 52.00145 17.84359 37291 ft 395 kts 269°
2026-05-06 18:29 52.00283 17.79952 37400 ft 395 kts 270°
2026-05-06 18:29 52.00423 17.75449 37514 ft 396 kts 269°
2026-05-06 18:29 52.00561 17.70958 37618 ft 397 kts 270°
2026-05-06 18:29 52.00695 17.66520 37714 ft 398 kts 269°
2026-05-06 18:30 52.00962 17.57537 37745 ft 399 kts 269°
2026-05-06 18:30 52.01220 17.48543 37746 ft 398 kts 269°
2026-05-06 18:31 52.01473 17.39563 37737 ft 398 kts 270°
2026-05-06 18:31 52.01718 17.30590 37751 ft 398 kts 269°
2026-05-06 18:32 52.01957 17.21572 37756 ft 398 kts 269°
2026-05-06 18:32 52.02190 17.12561 37755 ft 397 kts 269°
2026-05-06 18:33 52.02416 17.03580 37748 ft 397 kts 269°
2026-05-06 18:33 52.02632 16.94630 37744 ft 397 kts 269°
2026-05-06 18:34 52.02841 16.85726 37741 ft 396 kts 269°
2026-05-06 18:34 52.03046 16.76734 37764 ft 396 kts 269°
2026-05-06 18:35 52.03243 16.67784 37749 ft 397 kts 269°
2026-05-06 18:35 52.03433 16.58864 37740 ft 398 kts 268°
2026-05-06 18:36 52.03615 16.49869 37761 ft 398 kts 269°
2026-05-06 18:36 52.03792 16.40895 37751 ft 398 kts 269°
2026-05-06 18:37 52.03933 16.33406 37746 ft 398 kts 268°
2026-05-06 18:37 52.04126 16.22837 37765 ft 398 kts 268°
2026-05-06 18:38 52.04283 16.13874 37755 ft 397 kts 268°
2026-05-06 18:38 52.04432 16.04966 37759 ft 398 kts 268°
2026-05-06 18:39 52.04575 15.95937 37761 ft 397 kts 268°
2026-05-06 18:40 52.04775 15.82530 37773 ft 399 kts 268°
2026-05-06 18:40 52.04900 15.73546 37775 ft 399 kts 268°
2026-05-06 18:41 52.05019 15.64567 37785 ft 400 kts 268°
2026-05-06 18:41 52.05132 15.55539 37772 ft 400 kts 268°
2026-05-06 18:42 52.05237 15.46518 37766 ft 400 kts 268°
2026-05-06 18:42 52.05337 15.37494 37780 ft 400 kts 268°
2026-05-06 18:43 52.05427 15.28473 37776 ft 400 kts 267°
2026-05-06 18:43 52.05511 15.19581 37778 ft 400 kts 267°
2026-05-06 18:44 52.05590 15.10531 37787 ft 401 kts 267°
2026-05-06 18:44 52.05662 15.01460 37792 ft 401 kts 267°
2026-05-06 18:45 52.05727 14.92412 37791 ft 401 kts 267°
2026-05-06 18:45 52.05783 14.83400 37794 ft 400 kts 267°
2026-05-06 18:46 52.05828 14.74403 37788 ft 400 kts 266°
2026-05-06 18:46 52.05751 14.65383 37804 ft 401 kts 265°
2026-05-06 18:47 52.05649 14.56374 37812 ft 401 kts 265°
2026-05-06 18:47 52.05546 14.47322 37782 ft 402 kts 265°
2026-05-06 18:48 52.05439 14.38263 37774 ft 401 kts 265°
2026-05-06 18:48 52.05326 14.29217 37794 ft 401 kts 265°
2026-05-06 18:49 52.05207 14.20119 37789 ft 401 kts 265°
2026-05-06 18:49 52.05080 14.11086 37789 ft 401 kts 265°
2026-05-06 18:50 52.04948 14.02036 37776 ft 402 kts 265°
2026-05-06 18:50 52.04807 13.92923 37763 ft 402 kts 265°
2026-05-06 18:51 52.04659 13.83824 37766 ft 403 kts 265°
2026-05-06 18:51 52.04503 13.74709 37762 ft 404 kts 265°
2026-05-06 18:52 52.04341 13.65646 37771 ft 404 kts 265°
2026-05-06 18:52 52.04172 13.56526 37770 ft 405 kts 265°
2026-05-06 18:52 52.04085 13.51947 37914 ft 405 kts 265°
2026-05-06 18:53 52.03997 13.47359 37832 ft 404 kts 265°
2026-05-06 18:53 52.03814 13.38231 37795 ft 404 kts 265°
2026-05-06 18:54 52.03622 13.29086 37789 ft 404 kts 264°
2026-05-06 18:54 52.03422 13.19923 37791 ft 405 kts 264°
2026-05-06 18:55 52.03217 13.10795 37785 ft 405 kts 264°
2026-05-06 18:55 52.03006 13.01632 37784 ft 406 kts 264°
2026-05-06 18:56 52.02787 12.92522 37786 ft 407 kts 264°
2026-05-06 18:56 52.02562 12.83374 37788 ft 406 kts 264°
2026-05-06 18:57 52.02330 12.74267 37791 ft 406 kts 264°
2026-05-06 18:57 52.02088 12.65082 37785 ft 407 kts 264°
2026-05-06 18:58 52.01839 12.55908 37789 ft 408 kts 264°
2026-05-06 18:58 52.01584 12.46738 37787 ft 408 kts 264°
2026-05-06 18:59 52.01320 12.37542 37795 ft 407 kts 264°
2026-05-06 18:59 52.01048 12.28324 37796 ft 407 kts 264°
2026-05-06 19:00 52.00772 12.19134 37798 ft 408 kts 264°
2026-05-06 19:00 52.00488 12.09981 37805 ft 408 kts 264°
2026-05-06 19:01 52.00200 12.00873 37809 ft 408 kts 264°
2026-05-06 19:01 51.99900 11.91686 37805 ft 408 kts 264°
2026-05-06 19:02 51.99593 11.82485 37805 ft 409 kts 264°
2026-05-06 19:02 51.99103 11.73330 37806 ft 408 kts 261°
2026-05-06 19:03 51.98515 11.64226 37812 ft 409 kts 261°
2026-05-06 19:03 51.97920 11.55088 37809 ft 409 kts 261°
2026-05-06 19:04 51.97316 11.45937 37805 ft 410 kts 261°
2026-05-06 19:04 51.96705 11.36756 37812 ft 410 kts 261°
2026-05-06 19:05 51.96084 11.27553 37807 ft 409 kts 261°
2026-05-06 19:05 51.95461 11.18422 37807 ft 409 kts 261°
2026-05-06 19:06 51.94824 11.09206 37806 ft 409 kts 261°
2026-05-06 19:06 51.94185 11.00054 37803 ft 410 kts 261°
2026-05-06 19:07 51.93533 10.90836 37812 ft 411 kts 261°
2026-05-06 19:07 51.92875 10.81639 37809 ft 412 kts 261°
2026-05-06 19:08 51.92210 10.72440 37803 ft 412 kts 261°
2026-05-06 19:08 51.91538 10.63233 37803 ft 412 kts 261°
2026-05-06 19:09 51.90860 10.54035 37798 ft 411 kts 261°
2026-05-06 19:09 51.90174 10.44875 37805 ft 411 kts 261°
2026-05-06 19:10 51.89476 10.35628 37810 ft 411 kts 261°
2026-05-06 19:10 51.88773 10.26415 37806 ft 411 kts 260°
2026-05-06 19:11 51.88064 10.17226 37806 ft 411 kts 260°
2026-05-06 19:11 51.87360 10.08178 37807 ft 411 kts 260°
2026-05-06 19:12 51.86648 9.99133 37808 ft 411 kts 260°
2026-05-06 19:12 51.85920 9.89973 37810 ft 412 kts 260°
2026-05-06 19:13 51.85182 9.80774 37808 ft 412 kts 260°
2026-05-06 19:13 51.84437 9.71595 37806 ft 413 kts 260°
2026-05-06 19:14 51.83683 9.62403 37810 ft 415 kts 260°
2026-05-06 19:14 51.82807 9.53246 37807 ft 413 kts 256°
2026-05-06 19:15 51.81393 9.44223 37807 ft 413 kts 253°
2026-05-06 19:15 51.79873 9.35281 37807 ft 413 kts 253°
2026-05-06 19:16 51.78373 9.26493 37808 ft 412 kts 252°
2026-05-06 19:16 51.76871 9.17739 37811 ft 412 kts 252°
2026-05-06 19:17 51.75336 9.08836 37807 ft 413 kts 252°
2026-05-06 19:17 51.73823 9.00101 37819 ft 414 kts 252°
2026-05-06 19:18 51.72262 8.91132 37825 ft 414 kts 252°
2026-05-06 19:18 51.70702 8.82215 37833 ft 415 kts 252°
2026-05-06 19:19 51.69139 8.73326 37839 ft 415 kts 252°
2026-05-06 19:19 51.67558 8.64379 37846 ft 415 kts 252°
2026-05-06 19:20 51.65979 8.55484 37845 ft 415 kts 252°
2026-05-06 19:20 51.64384 8.46551 37850 ft 415 kts 252°
2026-05-06 19:20 51.63582 8.42074 37748 ft 416 kts 252°
2026-05-06 19:21 51.62789 8.37661 37541 ft 416 kts 253°
2026-05-06 19:21 51.61985 8.33197 37314 ft 416 kts 252°
2026-05-06 19:21 51.61198 8.28834 37035 ft 416 kts 252°
2026-05-06 19:21 51.60387 8.24346 36643 ft 416 kts 252°
2026-05-06 19:22 51.59576 8.19878 36143 ft 418 kts 252°
2026-05-06 19:22 51.58752 8.15345 35562 ft 420 kts 252°
2026-05-06 19:22 51.57937 8.10876 34971 ft 423 kts 252°
2026-05-06 19:22 51.57139 8.06507 34386 ft 426 kts 252°
2026-05-06 19:23 51.56296 8.01903 33773 ft 428 kts 252°
2026-05-06 19:23 51.55451 7.97302 33144 ft 431 kts 252°
2026-05-06 19:23 51.54597 7.92661 32430 ft 434 kts 252°
2026-05-06 19:23 51.53747 7.88049 31688 ft 435 kts 252°
2026-05-06 19:24 51.52885 7.83383 30965 ft 435 kts 252°
2026-05-06 19:24 51.52068 7.78975 30225 ft 434 kts 252°
2026-05-06 19:24 51.51221 7.74418 29644 ft 429 kts 252°
2026-05-06 19:24 51.50375 7.69876 29194 ft 422 kts 252°
2026-05-06 19:25 51.49647 7.65978 28789 ft 417 kts 252°
2026-05-06 19:25 51.48770 7.61297 28308 ft 411 kts 252°
2026-05-06 19:25 51.47976 7.57064 27867 ft 406 kts 252°
2026-05-06 19:25 51.47266 7.53287 27465 ft 401 kts 252°
2026-05-06 19:26 51.45851 7.45784 26665 ft 393 kts 252°
2026-05-06 19:26 51.44947 7.41013 26154 ft 388 kts 253°
2026-05-06 19:26 51.44155 7.36840 25711 ft 384 kts 253°
2026-05-06 19:27 51.43382 7.32822 25281 ft 380 kts 250°
2026-05-06 19:27 51.42455 7.29132 24921 ft 379 kts 243°
2026-05-06 19:27 51.41305 7.25745 24872 ft 382 kts 237°
2026-05-06 19:27 51.40203 7.23129 24875 ft 383 kts 234°
2026-05-06 19:28 51.39220 7.20977 24873 ft 384 kts 233°
2026-05-06 19:28 51.37323 7.16919 24876 ft 385 kts 232°
2026-05-06 19:28 51.36233 7.14600 24880 ft 385 kts 232°
2026-05-06 19:28 51.34494 7.10895 24883 ft 385 kts 233°
2026-05-06 19:29 51.32799 7.07280 24884 ft 385 kts 233°
2026-05-06 19:29 51.31327 7.04142 24887 ft 386 kts 233°
2026-05-06 19:29 51.29667 7.00601 24887 ft 386 kts 233°
2026-05-06 19:29 51.28362 6.97819 24889 ft 386 kts 233°
2026-05-06 19:30 51.26564 6.93995 24892 ft 386 kts 233°
2026-05-06 19:30 51.24938 6.90537 24895 ft 386 kts 233°
2026-05-06 19:30 51.23331 6.87123 24895 ft 386 kts 233°
2026-05-06 19:31 51.21721 6.83706 24898 ft 385 kts 233°
2026-05-06 19:31 51.20100 6.80271 24900 ft 386 kts 233°
2026-05-06 19:31 51.17049 6.73817 24901 ft 386 kts 233°
2026-05-06 19:32 51.15780 6.71141 24902 ft 386 kts 233°
2026-05-06 19:32 51.14072 6.67541 24900 ft 387 kts 233°
2026-05-06 19:32 51.12106 6.63406 24900 ft 387 kts 233°
2026-05-06 19:32 51.10474 6.59980 24900 ft 387 kts 232°
2026-05-06 19:33 51.08770 6.56644 24900 ft 387 kts 229°
2026-05-06 19:33 51.07044 6.53654 24901 ft 388 kts 226°
2026-05-06 19:33 51.05623 6.51391 24899 ft 389 kts 225°
2026-05-06 19:34 51.01178 6.44369 24899 ft 389 kts 225°
2026-05-06 19:34 50.99326 6.41446 24895 ft 389 kts 225°
2026-05-06 19:34 50.97387 6.38391 24898 ft 390 kts 225°
2026-05-06 19:34 50.95572 6.35535 24895 ft 390 kts 225°
2026-05-06 19:35 50.93663 6.32536 24892 ft 390 kts 224°
2026-05-06 19:35 50.92063 6.30024 24891 ft 391 kts 225°
2026-05-06 19:35 50.88622 6.24631 24901 ft 392 kts 225°
2026-05-06 19:36 50.86683 6.21593 24896 ft 392 kts 225°
2026-05-06 19:36 50.85037 6.19017 24893 ft 391 kts 225°
2026-05-06 19:36 50.83280 6.16271 24895 ft 390 kts 225°
2026-05-06 19:36 50.81564 6.13593 24731 ft 386 kts 225°
2026-05-06 19:37 50.79789 6.10829 24550 ft 385 kts 225°
2026-05-06 19:37 50.77856 6.07821 24560 ft 387 kts 225°
2026-05-06 19:37 50.76039 6.04977 24553 ft 388 kts 227°
2026-05-06 19:37 50.74685 6.02097 24297 ft 386 kts 245°
2026-05-06 19:38 50.74017 5.98268 24050 ft 383 kts 264°
2026-05-06 19:38 50.73833 5.94084 23794 ft 383 kts 266°
2026-05-06 19:38 50.73632 5.89878 23524 ft 380 kts 265°
2026-05-06 19:38 50.73392 5.85685 23257 ft 379 kts 264°
2026-05-06 19:39 50.73128 5.81566 22995 ft 377 kts 264°
2026-05-06 19:39 50.72857 5.77604 22741 ft 375 kts 264°
2026-05-06 19:39 50.72567 5.73517 22477 ft 373 kts 264°
2026-05-06 19:39 50.72268 5.69408 22209 ft 371 kts 264°
2026-05-06 19:40 50.71974 5.65408 21950 ft 370 kts 264°
2026-05-06 19:40 50.71671 5.61368 21689 ft 368 kts 264°
2026-05-06 19:40 50.71370 5.57387 21432 ft 366 kts 264°
2026-05-06 19:40 50.71070 5.53440 21169 ft 365 kts 264°
2026-05-06 19:41 50.70764 5.49433 20910 ft 364 kts 264°
2026-05-06 19:41 50.70463 5.45505 20651 ft 362 kts 264°
2026-05-06 19:41 50.70158 5.41538 20390 ft 361 kts 264°
2026-05-06 19:41 50.69855 5.37627 20104 ft 359 kts 264°
2026-05-06 19:42 50.69575 5.34009 19438 ft 361 kts 263°
2026-05-06 19:42 50.69281 5.30244 18409 ft 369 kts 263°
2026-05-06 19:42 50.69009 5.26762 17412 ft 376 kts 263°
2026-05-06 19:42 50.68700 5.22828 16235 ft 384 kts 263°
2026-05-06 19:43 50.68366 5.18680 14929 ft 391 kts 264°
2026-05-06 19:43 50.68010 5.14408 13554 ft 398 kts 263°
2026-05-06 19:43 50.67645 5.10133 12217 ft 397 kts 263°
2026-05-06 19:43 50.67282 5.05884 10836 ft 393 kts 263°
2026-05-06 19:44 50.66920 5.01627 9447 ft 387 kts 264°
2026-05-06 19:44 50.66565 4.97505 8149 ft 377 kts 264°
2026-05-06 19:44 50.66206 4.93522 7121 ft 361 kts 264°
2026-05-06 19:44 50.65848 4.89743 6420 ft 340 kts 264°
2026-05-06 19:45 50.65501 4.86190 6009 ft 317 kts 264°
2026-05-06 19:45 50.65171 4.82906 5923 ft 285 kts 264°
2026-05-06 19:45 50.64866 4.79965 5920 ft 258 kts 264°
2026-05-06 19:45 50.64579 4.77263 5918 ft 241 kts 264°
2026-05-06 19:46 50.64303 4.74719 5911 ft 232 kts 264°
2026-05-06 19:46 50.64032 4.72216 5913 ft 232 kts 264°
2026-05-06 19:46 50.63766 4.69756 5926 ft 232 kts 264°
2026-05-06 19:46 50.63512 4.67226 5899 ft 228 kts 270°
2026-05-06 19:47 50.63571 4.64742 5615 ft 226 kts 280°
2026-05-06 19:47 50.63779 4.62300 5284 ft 226 kts 282°
2026-05-06 19:47 50.64014 4.59873 5003 ft 225 kts 283°
2026-05-06 19:47 50.64251 4.57460 4704 ft 225 kts 283°
2026-05-06 19:48 50.64491 4.55013 4408 ft 224 kts 283°
2026-05-06 19:48 50.64726 4.52592 4108 ft 224 kts 283°
2026-05-06 19:48 50.64959 4.50166 3820 ft 224 kts 283°
2026-05-06 19:48 50.65242 4.47787 3533 ft 220 kts 295°
2026-05-06 19:49 50.66093 4.45903 3189 ft 211 kts 329°
2026-05-06 19:49 50.67360 4.44838 3014 ft 202 kts 340°
2026-05-06 19:49 50.68642 4.44020 2867 ft 194 kts 342°
2026-05-06 19:49 50.69891 4.43266 2717 ft 187 kts 343°
2026-05-06 19:50 50.71096 4.42659 2559 ft 178 kts 356°
2026-05-06 19:50 50.72316 4.42672 2405 ft 169 kts 10°
2026-05-06 19:50 50.73436 4.42977 2250 ft 162 kts 14°
2026-05-06 19:50 50.74539 4.43369 2040 ft 159 kts 15°
2026-05-06 19:51 50.75617 4.43792 2033 ft 159 kts 16°
2026-05-06 19:51 50.76693 4.44229 2057 ft 158 kts 16°
2026-05-06 19:51 50.77731 4.44653 2001 ft 151 kts 17°
2026-05-06 19:51 50.78744 4.45069 1995 ft 150 kts 17°
2026-05-06 19:52 50.79763 4.45487 1995 ft 149 kts 17°
2026-05-06 19:52 50.80764 4.45897 1844 ft 149 kts 17°
2026-05-06 19:52 50.81769 4.46309 1635 ft 149 kts 17°
2026-05-06 19:52 50.82785 4.46725 1430 ft 149 kts 16°
2026-05-06 19:53 50.83777 4.47130 1224 ft 145 kts 16°
2026-05-06 19:53 50.84726 4.47518 1026 ft 134 kts 16°
2026-05-06 19:53 50.85598 4.47874 792 ft 126 kts 16°
2026-05-06 19:53 50.86440 4.48222 625 ft 123 kts 16°
2026-05-06 19:54 50.87249 4.48554 514 ft 122 kts 16°
2026-05-06 19:54 50.88083 4.48899 398 ft 124 kts 15°
2026-05-06 19:54 50.88923 4.49230 236 ft 122 kts 15°
2026-05-06 19:54 50.89693 4.49545 193 ft 96 kts 16°
2026-05-06 19:55 50.90210 4.49764 193 ft 66 kts 15°
2026-05-06 19:55 50.90550 4.49892 193 ft 39 kts 14°
2026-05-06 19:55 50.90762 4.49929 193 ft 19 kts 349°
2026-05-06 19:55 50.90834 4.49898 193 ft 0 kts 340°
2026-05-06 19:56 50.90836 4.49897 193 ft 0 kts 340°
2026-05-06 19:56 50.90848 4.49888 193 ft 4 kts 326°
2026-05-06 19:56 50.90858 4.49800 193 ft 15 kts 246°
2026-05-06 19:56 50.90807 4.49640 193 ft 13 kts 229°
2026-05-06 19:57 50.90718 4.49584 193 ft 14 kts 196°
2026-05-06 19:57 50.90619 4.49541 193 ft 15 kts 195°
2026-05-06 19:57 50.90512 4.49497 193 ft 16 kts 194°
2026-05-06 19:57 50.90431 4.49419 193 ft 14 kts 242°
2026-05-06 19:58 50.90386 4.49267 193 ft 15 kts 246°
2026-05-06 19:58 50.90339 4.49103 193 ft 16 kts 245°
2026-05-06 19:58 50.90314 4.49011 193 ft 5 kts 260°
2026-05-06 19:58 50.90337 4.48969 193 ft 6 kts 330°
2026-05-06 19:59 50.90377 4.48938 193 ft 5 kts 335°
2026-05-06 19:59 50.90384 4.48933 193 ft 0 kts 335°